QPF
0.04 0.09 0.12 0.14 0.19 0.21 0.23 0.21 0.20 0.19 0.23 0.24 0.21 0.15 0.12 0.11 0.10 0.08 0.07 0.05 0.04 0.05 0.05 0.04 0.03 0.02 0.01 0.02 0.02 0.02 0.02 0.01 0.01 0.02 0.02 0.02 0.01 0.01 0.01 0.02 0.02 0.01 0.01
0.04 0.07 0.11 0.14 0.21 0.24 0.28 0.28 0.25 0.23 0.21 0.18 0.17 0.15 0.13 0.14 0.13 0.09 0.07 0.05 0.04 0.04 0.04 0.04 0.02 0.02 0.03 0.04 0.03 0.02 0.02 0.02 0.01 0.01 0.01 0.01 0.01 0.01 0.01 0.01 0.01 0.01 0.01
0.04 0.06 0.08 0.11 0.20 0.16 0.15 0.20 0.24 0.25 0.22 0.20 0.18 0.20 0.20 0.18 0.14 0.09 0.05 0.05 0.05 0.05 0.04 0.04 0.03 0.02 0.03 0.02 0.01 0.01 0.01 0.01 0.01 0.01 0.00 0.00 0.00 0.00 0.00 0.00 0.01 0.01 0.01
0.04 0.06 0.08 0.08 0.11 0.11 0.10 0.12 0.19 0.21 0.22 0.21 0.17 0.14 0.14 0.12 0.08 0.07 0.06 0.07 0.06 0.05 0.04 0.05 0.03 0.02 0.02 0.01 0.01 0.02 0.01 0.01 0.01 0.00 0.00 0.00 0.00 0.00 0.00 0.00 0.00 0.00 0.00
0.05 0.07 0.08 0.06 0.07 0.08 0.09 0.13 0.15 0.20 0.24 0.21 0.17 0.14 0.13 0.11 0.11 0.11 0.10 0.08 0.07 0.06 0.05 0.05 0.04 0.02 0.02 0.01 0.02 0.02 0.02 0.02 0.01 0.01 0.00 0.00 0.00 0.00 0.00 0.00 0.00 0.00 0.00
0.03 0.05 0.05 0.06 0.07 0.09 0.09 0.13 0.12 0.15 0.22 0.22 0.16 0.14 0.13 0.10 0.10 0.11 0.11 0.09 0.08 0.07 0.07 0.05 0.04 0.03 0.02 0.01 0.02 0.03 0.03 0.03 0.02 0.01 0.01 0.00 0.00 0.00 0.00 0.00 0.00 0.00 0.00
0.03 0.04 0.03 0.05 0.06 0.05 0.07 0.09 0.10 0.14 0.18 0.19 0.15 0.12 0.10 0.07 0.06 0.07 0.08 0.08 0.07 0.06 0.05 0.04 0.04 0.03 0.02 0.01 0.02 0.03 0.02 0.02 0.03 0.02 0.01 0.00 0.00 0.00 0.00 0.00 0.00 0.00 0.00
0.02 0.02 0.03 0.03 0.03 0.03 0.04 0.06 0.08 0.11 0.15 0.14 0.13 0.11 0.08 0.05 0.04 0.04 0.04 0.06 0.06 0.05 0.06 0.06 0.04 0.04 0.03 0.02 0.02 0.03 0.02 0.02 0.02 0.02 0.01 0.00 0.00 0.00 0.00 0.00 0.00 0.00 0.00
0.01 0.01 0.02 0.02 0.02 0.01 0.02 0.03 0.05 0.07 0.12 0.12 0.12 0.11 0.08 0.06 0.04 0.04 0.05 0.05 0.06 0.07 0.07 0.06 0.05 0.03 0.04 0.02 0.02 0.02 0.02 0.01 0.01 0.01 0.01 0.00 0.00 0.00 0.00 0.00 0.00 0.00 0.00
0.01 0.01 0.01 0.02 0.02 0.01 0.01 0.02 0.04 0.06 0.08 0.10 0.09 0.08 0.07 0.07 0.06 0.05 0.05 0.05 0.06 0.06 0.06 0.05 0.04 0.04 0.05 0.04 0.03 0.03 0.02 0.02 0.01 0.01 0.01 0.01 0.01 0.01 0.01 0.01 0.01 0.00 0.00
0.01 0.01 0.02 0.03 0.02 0.02 0.02 0.03 0.04 0.05 0.06 0.07 0.06 0.06 0.07 0.08 0.07 0.06 0.05 0.05 0.06 0.06 0.06 0.05 0.04 0.03 0.03 0.04 0.04 0.03 0.03 0.02 0.02 0.02 0.01 0.01 0.01 0.01 0.01 0.01 0.00 0.00 0.00
0.01 0.01 0.02 0.03 0.03 0.03 0.03 0.02 0.03 0.04 0.04 0.05 0.05 0.05 0.07 0.09 0.07 0.06 0.06 0.06 0.05 0.05 0.06 0.04 0.03 0.03 0.03 0.03 0.04 0.04 0.03 0.03 0.02 0.01 0.01 0.01 0.01 0.01 0.01 0.01 0.00 0.00 0.00
0.01 0.01 0.03 0.04 0.04 0.05 0.03 0.03 0.04 0.06 0.05 0.05 0.06 0.07 0.08 0.08 0.06 0.05 0.07 0.07 0.06 0.06 0.06 0.06 0.05 0.04 0.04 0.04 0.04 0.04 0.03 0.03 0.02 0.01 0.01 0.01 0.00 0.01 0.00 0.00 0.00 0.00 0.01
0.01 0.01 0.03 0.03 0.03 0.03 0.03 0.04 0.06 0.10 0.11 0.10 0.10 0.11 0.12 0.11 0.10 0.09 0.09 0.09 0.09 0.08 0.08 0.07 0.06 0.05 0.06 0.05 0.04 0.04 0.03 0.03 0.02 0.02 0.01 0.01 0.01 0.01 0.01 0.01 0.01 0.01 0.01
0.01 0.01 0.02 0.02 0.02 0.03 0.03 0.02 0.04 0.07 0.12 0.15 0.16 0.16 0.17 0.17 0.13 0.11 0.11 0.12 0.13 0.13 0.11 0.11 0.08 0.08 0.07 0.07 0.06 0.05 0.03 0.03 0.03 0.02 0.02 0.02 0.02 0.01 0.01 0.01 0.01 0.01 0.01
0.02 0.02 0.01 0.02 0.02 0.03 0.03 0.02 0.02 0.03 0.05 0.08 0.08 0.09 0.11 0.14 0.10 0.09 0.09 0.10 0.11 0.12 0.12 0.13 0.12 0.10 0.10 0.10 0.09 0.07 0.06 0.05 0.04 0.03 0.03 0.03 0.02 0.02 0.02 0.02 0.01 0.01 0.01
0.01 0.01 0.01 0.02 0.03 0.02 0.02 0.02 0.02 0.03 0.03 0.04 0.05 0.06 0.09 0.13 0.12 0.10 0.08 0.09 0.10 0.09 0.08 0.09 0.09 0.09 0.09 0.09 0.09 0.09 0.08 0.07 0.06 0.05 0.05 0.04 0.03 0.02 0.01 0.01 0.01 0.01 0.01
0.02 0.02 0.02 0.03 0.06 0.04 0.03 0.03 0.04 0.05 0.06 0.07 0.07 0.06 0.07 0.08 0.11 0.12 0.10 0.11 0.14 0.13 0.11 0.08 0.08 0.08 0.08 0.09 0.08 0.09 0.08 0.08 0.07 0.07 0.06 0.05 0.04 0.03 0.02 0.01 0.01 0.00 0.00
0.02 0.03 0.03 0.04 0.07 0.09 0.06 0.08 0.11 0.11 0.10 0.09 0.08 0.10 0.10 0.10 0.11 0.11 0.11 0.10 0.13 0.13 0.10 0.09 0.07 0.08 0.09 0.10 0.09 0.09 0.07 0.06 0.06 0.05 0.04 0.03 0.02 0.02 0.01 0.01 0.01 0.01 0.01
0.04 0.05 0.06 0.06 0.10 0.12 0.11 0.11 0.12 0.13 0.12 0.10 0.10 0.12 0.15 0.14 0.14 0.14 0.13 0.13 0.14 0.13 0.10 0.08 0.07 0.07 0.08 0.09 0.08 0.06 0.05 0.04 0.04 0.03 0.03 0.03 0.03 0.03 0.03 0.03 0.03 0.02 0.02
0.07 0.08 0.09 0.10 0.11 0.11 0.11 0.11 0.11 0.12 0.13 0.14 0.15 0.19 0.21 0.24 0.21 0.20 0.18 0.17 0.17 0.15 0.13 0.10 0.07 0.06 0.06 0.06 0.06 0.06 0.06 0.06 0.06 0.05 0.05 0.04 0.04 0.03 0.02 0.02 0.01 0.01 0.01
0.07 0.10 0.13 0.12 0.11 0.12 0.12 0.12 0.14 0.15 0.16 0.16 0.18 0.23 0.23 0.25 0.28 0.25 0.22 0.18 0.14 0.13 0.11 0.09 0.07 0.06 0.05 0.05 0.05 0.06 0.06 0.05 0.05 0.04 0.03 0.02 0.02 0.02 0.02 0.01 0.01 0.01 0.01
0.06 0.08 0.13 0.15 0.15 0.16 0.16 0.15 0.16 0.17 0.16 0.19 0.22 0.23 0.23 0.22 0.24 0.22 0.20 0.15 0.12 0.11 0.10 0.09 0.09 0.08 0.07 0.07 0.07 0.07 0.07 0.06 0.05 0.05 0.05 0.04 0.04 0.04 0.04 0.03 0.02 0.01 0.00
0.08 0.06 0.08 0.12 0.17 0.19 0.21 0.21 0.18 0.18 0.18 0.20 0.20 0.20 0.23 0.20 0.19 0.19 0.19 0.16 0.13 0.11 0.09 0.09 0.10 0.11 0.11 0.11 0.09 0.08 0.06 0.06 0.04 0.04 0.04 0.03 0.03 0.02 0.01 0.01 0.01 0.00 0.00
0.10 0.10 0.10 0.11 0.14 0.18 0.23 0.25 0.21 0.18 0.19 0.19 0.16 0.15 0.17 0.18 0.17 0.18 0.19 0.18 0.15 0.13 0.12 0.12 0.12 0.12 0.11 0.09 0.07 0.06 0.05 0.04 0.03 0.02 0.01 0.01 0.01 0.01 0.00 0.00 0.00 0.00 0.00
0.09 0.09 0.10 0.11 0.14 0.17 0.22 0.23 0.19 0.17 0.17 0.19 0.16 0.14 0.14 0.15 0.15 0.16 0.17 0.17 0.14 0.12 0.10 0.09 0.08 0.07 0.06 0.05 0.04 0.02 0.02 0.01 0.01 0.01 0.01 0.00 0.00 0.00 0.00 0.00 0.00 0.00 0.00
MSLP
1008.93 1009.31 1009.62 1009.86 1010.06 1010.26 1010.52 1010.89 1011.38 1012.00 1012.69 1013.40 1014.07 1014.63 1015.06 1015.33 1015.49 1015.57 1015.63 1015.72 1015.90 1016.16 1016.52 1016.94 1017.39 1017.84 1018.24 1018.60 1018.91 1019.17 1019.42 1019.66 1019.91 1020.15 1020.39 1020.58 1020.73 1020.81 1020.82 1020.77 1020.68 1020.59 1020.53
1008.55 1008.89 1009.16 1009.36 1009.52 1009.68 1009.92 1010.28 1010.80 1011.47 1012.25 1013.06 1013.84 1014.49 1014.99 1015.30 1015.46 1015.52 1015.54 1015.59 1015.72 1015.96 1016.30 1016.73 1017.20 1017.66 1018.08 1018.45 1018.76 1019.03 1019.27 1019.52 1019.77 1020.05 1020.32 1020.56 1020.75 1020.88 1020.92 1020.88 1020.79 1020.68 1020.57
1008.10 1008.40 1008.63 1008.80 1008.93 1009.07 1009.29 1009.66 1010.20 1010.93 1011.77 1012.68 1013.54 1014.28 1014.85 1015.22 1015.40 1015.46 1015.47 1015.49 1015.60 1015.81 1016.13 1016.54 1017.00 1017.46 1017.88 1018.24 1018.54 1018.80 1019.05 1019.30 1019.58 1019.88 1020.20 1020.49 1020.75 1020.93 1021.02 1021.01 1020.93 1020.81 1020.67
1007.65 1007.91 1008.13 1008.28 1008.40 1008.53 1008.74 1009.11 1009.66 1010.41 1011.29 1012.24 1013.16 1013.96 1014.59 1015.01 1015.24 1015.33 1015.35 1015.38 1015.48 1015.68 1015.98 1016.38 1016.82 1017.26 1017.66 1018.01 1018.30 1018.56 1018.80 1019.07 1019.37 1019.70 1020.06 1020.42 1020.73 1020.96 1021.10 1021.13 1021.07 1020.95 1020.78
1007.28 1007.52 1007.74 1007.90 1008.03 1008.16 1008.36 1008.71 1009.24 1009.96 1010.82 1011.75 1012.68 1013.50 1014.17 1014.63 1014.91 1015.05 1015.12 1015.19 1015.31 1015.52 1015.84 1016.22 1016.65 1017.08 1017.46 1017.80 1018.08 1018.33 1018.58 1018.86 1019.18 1019.55 1019.94 1020.34 1020.69 1020.98 1021.15 1021.22 1021.18 1021.05 1020.87
1007.06 1007.31 1007.55 1007.74 1007.88 1008.02 1008.21 1008.50 1008.97 1009.60 1010.37 1011.22 1012.09 1012.88 1013.54 1014.03 1014.37 1014.58 1014.73 1014.87 1015.06 1015.32 1015.66 1016.06 1016.49 1016.92 1017.29 1017.62 1017.91 1018.16 1018.42 1018.71 1019.04 1019.43 1019.84 1020.25 1020.63 1020.94 1021.14 1021.23 1021.20 1021.09 1020.91
1007.03 1007.30 1007.58 1007.81 1007.99 1008.12 1008.27 1008.49 1008.84 1009.32 1009.94 1010.64 1011.38 1012.08 1012.70 1013.20 1013.59 1013.89 1014.14 1014.40 1014.69 1015.04 1015.44 1015.89 1016.34 1016.78 1017.16 1017.50 1017.78 1018.05 1018.32 1018.61 1018.95 1019.34 1019.75 1020.16 1020.53 1020.83 1021.04 1021.14 1021.14 1021.04 1020.88
1007.18 1007.49 1007.82 1008.10 1008.30 1008.43 1008.52 1008.63 1008.82 1009.11 1009.52 1010.02 1010.58 1011.15 1011.69 1012.19 1012.63 1013.02 1013.40 1013.79 1014.22 1014.68 1015.19 1015.70 1016.20 1016.66 1017.06 1017.41 1017.71 1017.99 1018.26 1018.56 1018.90 1019.27 1019.66 1020.04 1020.39 1020.67 1020.86 1020.96 1020.98 1020.91 1020.78
1007.46 1007.82 1008.20 1008.52 1008.73 1008.83 1008.85 1008.83 1008.84 1008.92 1009.09 1009.35 1009.71 1010.12 1010.58 1011.06 1011.55 1012.04 1012.57 1013.12 1013.70 1014.30 1014.91 1015.51 1016.06 1016.56 1016.99 1017.35 1017.67 1017.96 1018.25 1018.55 1018.88 1019.22 1019.58 1019.92 1020.22 1020.47 1020.64 1020.74 1020.77 1020.74 1020.65
1007.82 1008.22 1008.63 1008.97 1009.17 1009.24 1009.17 1009.03 1008.85 1008.71 1008.65 1008.68 1008.84 1009.10 1009.47 1009.93 1010.47 1011.07 1011.74 1012.45 1013.19 1013.93 1014.65 1015.33 1015.95 1016.48 1016.94 1017.32 1017.65 1017.96 1018.26 1018.56 1018.88 1019.21 1019.53 1019.83 1020.08 1020.29 1020.44 1020.53 1020.57 1020.58 1020.55
1008.17 1008.58 1009.00 1009.33 1009.52 1009.54 1009.40 1009.14 1008.81 1008.49 1008.23 1008.07 1008.05 1008.19 1008.48 1008.94 1009.53 1010.24 1011.03 1011.89 1012.77 1013.64 1014.46 1015.21 1015.87 1016.43 1016.91 1017.31 1017.66 1017.98 1018.29 1018.61 1018.93 1019.25 1019.55 1019.81 1020.03 1020.20 1020.32 1020.41 1020.46 1020.50 1020.52
1008.45 1008.85 1009.25 1009.56 1009.72 1009.69 1009.49 1009.15 1008.72 1008.28 1007.87 1007.58 1007.44 1007.49 1007.75 1008.20 1008.84 1009.64 1010.55 1011.52 1012.51 1013.48 1014.37 1015.17 1015.85 1016.43 1016.91 1017.32 1017.69 1018.03 1018.37 1018.71 1019.05 1019.37 1019.66 1019.91 1020.11 1020.26 1020.36 1020.43 1020.50 1020.56 1020.62
1008.63 1009.00 1009.35 1009.62 1009.74 1009.69 1009.46 1009.09 1008.62 1008.11 1007.65 1007.29 1007.10 1007.11 1007.35 1007.82 1008.50 1009.36 1010.35 1011.40 1012.47 1013.48 1014.41 1015.23 1015.91 1016.49 1016.97 1017.38 1017.76 1018.13 1018.51 1018.88 1019.26 1019.60 1019.91 1020.16 1020.35 1020.48 1020.57 1020.63 1020.69 1020.76 1020.84
1008.69 1009.01 1009.31 1009.53 1009.63 1009.57 1009.35 1009.00 1008.55 1008.06 1007.61 1007.26 1007.07 1007.08 1007.33 1007.83 1008.55 1009.44 1010.47 1011.56 1012.64 1013.67 1014.60 1015.40 1016.07 1016.62 1017.09 1017.50 1017.90 1018.30 1018.72 1019.14 1019.56 1019.96 1020.29 1020.56 1020.76 1020.88 1020.95 1021.00 1021.04 1021.10 1021.18
1008.66 1008.92 1009.16 1009.35 1009.44 1009.40 1009.23 1008.94 1008.57 1008.16 1007.79 1007.50 1007.36 1007.42 1007.71 1008.22 1008.96 1009.87 1010.90 1011.97 1013.04 1014.04 1014.94 1015.69 1016.32 1016.84 1017.29 1017.71 1018.12 1018.55 1019.01 1019.49 1019.97 1020.41 1020.79 1021.09 1021.30 1021.42 1021.48 1021.50 1021.51 1021.54 1021.59
1008.57 1008.78 1008.97 1009.13 1009.22 1009.23 1009.14 1008.96 1008.71 1008.43 1008.18 1008.00 1007.96 1008.08 1008.41 1008.95 1009.68 1010.58 1011.58 1012.62 1013.64 1014.58 1015.41 1016.12 1016.70 1017.18 1017.61 1018.02 1018.44 1018.90 1019.40 1019.93 1020.46 1020.95 1021.37 1021.69 1021.92 1022.04 1022.08 1022.07 1022.05 1022.03 1022.04
1008.47 1008.62 1008.78 1008.92 1009.04 1009.11 1009.12 1009.07 1008.97 1008.85 1008.74 1008.70 1008.76 1008.97 1009.34 1009.91 1010.64 1011.51 1012.46 1013.44 1014.39 1015.27 1016.03 1016.67 1017.20 1017.65 1018.06 1018.46 1018.89 1019.36 1019.89 1020.45 1021.01 1021.53 1021.98 1022.33 1022.56 1022.68 1022.71 1022.67 1022.61 1022.56 1022.52
1008.38 1008.49 1008.62 1008.76 1008.91 1009.05 1009.16 1009.25 1009.30 1009.35 1009.40 1009.50 1009.68 1009.97 1010.41 1011.00 1011.72 1012.56 1013.47 1014.39 1015.27 1016.08 1016.78 1017.37 1017.85 1018.27 1018.65 1019.04 1019.46 1019.94 1020.47 1021.04 1021.61 1022.14 1022.60 1022.95 1023.19 1023.30 1023.32 1023.27 1023.18 1023.09 1023.02
1008.33 1008.41 1008.53 1008.67 1008.85 1009.05 1009.26 1009.46 1009.66 1009.85 1010.05 1010.29 1010.59 1010.98 1011.48 1012.11 1012.84 1013.66 1014.53 1015.40 1016.24 1016.99 1017.64 1018.19 1018.64 1019.03 1019.39 1019.75 1020.16 1020.62 1021.14 1021.69 1022.24 1022.76 1023.20 1023.55 1023.78 1023.89 1023.90 1023.84 1023.74 1023.64 1023.54
1008.36 1008.41 1008.51 1008.65 1008.84 1009.09 1009.37 1009.67 1009.98 1010.30 1010.64 1011.01 1011.42 1011.91 1012.49 1013.16 1013.92 1014.75 1015.60 1016.45 1017.25 1017.98 1018.60 1019.12 1019.55 1019.91 1020.25 1020.60 1020.97 1021.40 1021.87 1022.38 1022.89 1023.37 1023.79 1024.12 1024.33 1024.44 1024.46 1024.41 1024.32 1024.21 1024.11
1008.48 1008.50 1008.57 1008.70 1008.89 1009.15 1009.47 1009.84 1010.24 1010.66 1011.11 1011.60 1012.13 1012.72 1013.39 1014.13 1014.93 1015.79 1016.65 1017.50 1018.29 1019.00 1019.61 1020.12 1020.54 1020.89 1021.21 1021.52 1021.86 1022.24 1022.66 1023.11 1023.56 1023.99 1024.36 1024.66 1024.86 1024.98 1025.01 1024.97 1024.90 1024.82 1024.73
1008.70 1008.70 1008.73 1008.83 1009.01 1009.26 1009.59 1009.99 1010.44 1010.94 1011.49 1012.08 1012.72 1013.41 1014.17 1014.99 1015.86 1016.76 1017.65 1018.52 1019.32 1020.03 1020.64 1021.15 1021.56 1021.90 1022.20 1022.49 1022.79 1023.11 1023.47 1023.85 1024.23 1024.60 1024.92 1025.19 1025.38 1025.50 1025.55 1025.54 1025.50 1025.44 1025.38
1009.05 1009.01 1009.01 1009.07 1009.22 1009.45 1009.77 1010.17 1010.66 1011.21 1011.82 1012.49 1013.23 1014.02 1014.88 1015.78 1016.71 1017.66 1018.60 1019.48 1020.30 1021.02 1021.64 1022.14 1022.55 1022.88 1023.17 1023.43 1023.69 1023.97 1024.27 1024.58 1024.90 1025.20 1025.48 1025.71 1025.89 1026.01 1026.08 1026.10 1026.10 1026.07 1026.02
1009.52 1009.46 1009.43 1009.45 1009.56 1009.76 1010.05 1010.45 1010.94 1011.52 1012.19 1012.93 1013.74 1014.62 1015.55 1016.52 1017.52 1018.51 1019.47 1020.38 1021.20 1021.92 1022.54 1023.04 1023.45 1023.78 1024.05 1024.30 1024.53 1024.77 1025.02 1025.27 1025.54 1025.79 1026.02 1026.22 1026.38 1026.51 1026.59 1026.64 1026.66 1026.65 1026.62
1010.10 1010.03 1009.99 1009.99 1010.06 1010.23 1010.51 1010.89 1011.38 1011.98 1012.68 1013.46 1014.33 1015.27 1016.25 1017.27 1018.30 1019.32 1020.29 1021.19 1022.01 1022.72 1023.32 1023.82 1024.22 1024.54 1024.81 1025.05 1025.26 1025.47 1025.69 1025.91 1026.13 1026.34 1026.54 1026.71 1026.86 1026.98 1027.06 1027.12 1027.16 1027.16 1027.13
1010.77 1010.72 1010.69 1010.69 1010.76 1010.92 1011.17 1011.54 1012.03 1012.63 1013.34 1014.15 1015.04 1016.00 1017.01 1018.05 1019.08 1020.09 1021.04 1021.92 1022.70 1023.39 1023.97 1024.45 1024.84 1025.16 1025.43 1025.66 1025.88 1026.08 1026.28 1026.48 1026.67 1026.85 1027.02 1027.17 1027.30 1027.40 1027.48 1027.54 1027.57 1027.57 1027.53
Thickness
5777 5773 5768 5763 5757 5750 5745 5741 5737 5734 5730 5726 5722 5720 5719 5719 5719 5720 5721 5722 5723 5723 5723 5723 5723 5723 5722 5721 5721 5719 5718 5716 5716 5714 5712 5713 5715 5716 5716 5716 5716 5715 5715
5773 5770 5766 5762 5756 5750 5745 5740 5736 5733 5731 5728 5725 5723 5721 5719 5719 5720 5721 5722 5722 5722 5722 5722 5722 5722 5721 5720 5719 5719 5716 5715 5714 5712 5708 5705 5708 5712 5715 5716 5716 5716 5716
5772 5768 5764 5760 5756 5750 5745 5741 5737 5733 5730 5727 5723 5720 5718 5716 5715 5717 5719 5720 5721 5721 5722 5721 5721 5721 5721 5719 5719 5718 5717 5713 5712 5713 5710 5703 5701 5706 5711 5714 5715 5715 5715
5771 5767 5763 5760 5756 5753 5749 5743 5738 5734 5730 5727 5723 5720 5718 5716 5717 5718 5718 5718 5719 5720 5720 5720 5720 5720 5720 5719 5719 5718 5718 5716 5712 5711 5712 5711 5709 5705 5705 5710 5713 5714 5715
5770 5766 5763 5760 5757 5754 5749 5744 5739 5734 5732 5728 5725 5721 5718 5717 5717 5717 5716 5716 5718 5719 5720 5720 5720 5719 5719 5719 5718 5717 5717 5716 5714 5712 5711 5709 5708 5707 5705 5704 5708 5711 5713
5768 5764 5761 5759 5756 5753 5748 5743 5738 5734 5732 5728 5724 5721 5718 5716 5715 5715 5714 5715 5715 5717 5718 5718 5718 5718 5718 5717 5717 5717 5716 5715 5714 5713 5712 5710 5708 5706 5705 5703 5703 5705 5709
5764 5761 5757 5754 5752 5749 5745 5741 5736 5733 5730 5726 5723 5721 5719 5717 5716 5715 5715 5714 5714 5714 5716 5717 5717 5717 5717 5716 5716 5715 5714 5714 5713 5712 5711 5711 5710 5709 5706 5703 5701 5701 5704
5763 5759 5756 5753 5750 5746 5742 5739 5735 5731 5729 5725 5722 5721 5719 5718 5716 5716 5716 5715 5715 5715 5715 5715 5715 5715 5715 5715 5714 5713 5712 5712 5711 5711 5710 5709 5709 5708 5707 5704 5700 5697 5698
5762 5759 5756 5752 5749 5745 5741 5737 5734 5731 5728 5726 5722 5720 5719 5718 5716 5715 5715 5714 5714 5714 5713 5713 5713 5713 5713 5713 5712 5711 5710 5709 5708 5708 5707 5706 5706 5705 5704 5703 5701 5697 5692
5759 5758 5755 5753 5749 5745 5741 5737 5734 5731 5729 5726 5723 5721 5719 5718 5716 5715 5713 5713 5713 5713 5711 5711 5711 5711 5710 5710 5709 5708 5707 5706 5704 5704 5703 5702 5702 5701 5700 5699 5698 5696 5693
5758 5757 5755 5753 5749 5745 5741 5737 5734 5731 5728 5726 5724 5721 5719 5717 5715 5714 5713 5713 5712 5711 5710 5709 5708 5707 5707 5707 5706 5705 5704 5702 5701 5700 5699 5698 5697 5696 5695 5695 5693 5691 5690
5758 5757 5754 5751 5747 5744 5741 5738 5735 5732 5729 5728 5725 5721 5718 5716 5714 5712 5712 5712 5711 5710 5708 5707 5706 5705 5704 5704 5703 5701 5700 5698 5697 5696 5695 5693 5692 5691 5690 5689 5687 5686 5685
5756 5754 5752 5749 5746 5744 5741 5738 5735 5732 5730 5727 5724 5720 5717 5715 5713 5711 5711 5710 5709 5707 5706 5705 5703 5702 5701 5700 5699 5698 5696 5694 5693 5691 5690 5688 5687 5685 5683 5682 5681 5680 5679
5756 5753 5750 5747 5745 5743 5740 5737 5735 5733 5730 5726 5722 5719 5716 5714 5711 5709 5708 5707 5706 5704 5703 5702 5701 5699 5698 5696 5695 5693 5691 5688 5687 5685 5684 5682 5681 5679 5677 5675 5673 5672 5670
5753 5751 5748 5746 5743 5741 5738 5735 5734 5732 5729 5724 5721 5718 5715 5712 5709 5706 5704 5703 5702 5701 5700 5698 5697 5695 5694 5692 5690 5688 5685 5682 5679 5677 5676 5674 5673 5671 5670 5667 5664 5662 5660
5751 5750 5748 5745 5742 5739 5737 5734 5731 5729 5726 5723 5719 5716 5713 5708 5705 5702 5700 5698 5697 5695 5694 5693 5691 5689 5688 5686 5685 5682 5678 5674 5672 5668 5666 5664 5662 5661 5659 5657 5655 5652 5649
5748 5746 5745 5743 5741 5739 5736 5732 5729 5727 5723 5720 5716 5713 5710 5706 5702 5699 5696 5693 5691 5689 5687 5685 5683 5681 5679 5679 5677 5674 5670 5666 5662 5659 5657 5654 5651 5649 5647 5644 5642 5639 5636
5744 5743 5741 5740 5738 5737 5734 5730 5726 5723 5720 5716 5712 5709 5705 5701 5697 5694 5691 5688 5685 5682 5679 5677 5675 5672 5670 5668 5667 5664 5661 5656 5651 5648 5646 5643 5639 5637 5635 5632 5628 5623 5620
5740 5739 5737 5735 5734 5732 5730 5726 5722 5719 5716 5712 5709 5705 5701 5697 5693 5689 5685 5682 5679 5674 5671 5668 5665 5663 5659 5658 5656 5654 5650 5644 5639 5636 5633 5630 5627 5624 5622 5618 5614 5609 5604
5733 5732 5730 5729 5726 5725 5724 5721 5717 5714 5710 5708 5705 5701 5696 5692 5687 5683 5678 5674 5670 5666 5662 5657 5654 5652 5649 5647 5645 5643 5639 5633 5627 5623 5619 5617 5614 5610 5607 5603 5599 5593 5588
5724 5724 5722 5720 5718 5718 5716 5713 5710 5708 5706 5703 5699 5694 5690 5685 5680 5675 5671 5666 5661 5656 5651 5646 5642 5639 5636 5634 5632 5631 5627 5622 5616 5611 5606 5602 5599 5596 5592 5588 5583 5578 5573
5713 5712 5710 5709 5709 5710 5708 5705 5701 5700 5698 5695 5691 5686 5681 5676 5670 5666 5661 5656 5651 5646 5639 5635 5629 5625 5623 5621 5618 5615 5612 5609 5604 5597 5591 5587 5584 5580 5576 5572 5567 5562 5558
5700 5700 5700 5698 5697 5697 5698 5694 5690 5688 5687 5684 5679 5675 5670 5666 5660 5656 5650 5645 5640 5636 5629 5625 5618 5613 5609 5606 5603 5600 5597 5593 5588 5582 5577 5572 5568 5564 5559 5555 5551 5547 5543
5687 5688 5688 5686 5684 5683 5683 5682 5680 5678 5676 5671 5666 5662 5657 5652 5647 5642 5638 5633 5628 5624 5619 5613 5607 5601 5596 5592 5589 5585 5582 5578 5573 5567 5561 5557 5552 5548 5542 5537 5533 5529 5524
5675 5675 5675 5673 5671 5671 5669 5669 5668 5667 5663 5658 5653 5648 5643 5637 5631 5625 5620 5617 5613 5612 5608 5602 5597 5592 5585 5579 5577 5573 5568 5564 5559 5553 5547 5543 5538 5532 5526 5521 5516 5511 5507
5663 5661 5661 5659 5658 5657 5656 5655 5654 5653 5650 5644 5637 5632 5627 5622 5616 5611 5602 5597 5595 5593 5591 5588 5584 5578 5573 5567 5563 5559 5554 5549 5544 5540 5533 5526 5521 5516 5510 5505 5499 5494 5488